EZS47HC LDSP-LSGG

Flight info

Callsign EZS47HC
Flight time 1h 23m
Altitude 38000
Route ZDA DCT BAXON DCT SRN DCT OMETO DCT TERSI DCT AOSTA L615 BANKO
Aircraft A320/M-SDE2E3FGHIJ1RWXYZ/LB1

Departure

Time 2026-05-05 10:08
Airport Split Saint Jerome Airport (LDSP)

Arrival

Time 2026-05-05 11:31
Airport Geneva International Airport (LSGG)
Time Latitude Longitude Altitude Speed Heading
2026-05-05 10:00 43.53584 16.29702 67 ft 0 kts 97°
2026-05-05 10:01 43.53584 16.29703 67 ft 1 kts 97°
2026-05-05 10:01 43.53576 16.29710 62 ft 2 kts 158°
2026-05-05 10:02 43.53571 16.29707 62 ft 0 kts 196°
2026-05-05 10:02 43.53563 16.29693 60 ft 4 kts 243°
2026-05-05 10:02 43.53574 16.29648 65 ft 5 kts 302°
2026-05-05 10:02 43.53597 16.29617 63 ft 6 kts 320°
2026-05-05 10:03 43.53655 16.29574 64 ft 10 kts 354°
2026-05-05 10:03 43.53689 16.29560 71 ft 2 kts 322°
2026-05-05 10:03 43.53699 16.29536 72 ft 5 kts 288°
2026-05-05 10:03 43.53699 16.29457 81 ft 9 kts 257°
2026-05-05 10:04 43.53664 16.29380 83 ft 11 kts 232°
2026-05-05 10:04 43.53607 16.29279 85 ft 16 kts 232°
2026-05-05 10:04 43.53527 16.29133 81 ft 21 kts 232°
2026-05-05 10:04 43.53437 16.28973 81 ft 21 kts 233°
2026-05-05 10:05 43.53350 16.28813 84 ft 21 kts 232°
2026-05-05 10:05 43.53269 16.28668 82 ft 17 kts 233°
2026-05-05 10:05 43.53207 16.28617 75 ft 7 kts 222°
2026-05-05 10:05 43.53220 16.28595 72 ft 3 kts
2026-05-05 10:06 43.53234 16.28605 73 ft 2 kts 34°
2026-05-05 10:06 43.53243 16.28619 70 ft 0 kts 49°
2026-05-05 10:07 43.53244 16.28621 73 ft 2 kts 49°
2026-05-05 10:07 43.53340 16.28795 83 ft 56 kts 53°
2026-05-05 10:07 43.53721 16.29485 84 ft 122 kts 53°
2026-05-05 10:07 43.54338 16.30600 196 ft 161 kts 56°
2026-05-05 10:08 43.54943 16.31863 960 ft 159 kts 75°
2026-05-05 10:08 43.54908 16.33359 1762 ft 156 kts 111°
2026-05-05 10:08 43.54516 16.34714 2601 ft 151 kts 122°
2026-05-05 10:08 43.53880 16.35850 3249 ft 150 kts 140°
2026-05-05 10:09 43.52965 16.36648 3682 ft 166 kts 153°
2026-05-05 10:09 43.51910 16.37408 4192 ft 174 kts 153°
2026-05-05 10:09 43.50826 16.38204 4806 ft 178 kts 154°
2026-05-05 10:09 43.49727 16.39012 5410 ft 181 kts 154°
2026-05-05 10:10 43.48607 16.39835 6013 ft 184 kts 155°
2026-05-05 10:10 43.47414 16.40705 6327 ft 205 kts 157°
2026-05-05 10:10 43.46009 16.41042 6896 ft 211 kts 193°
2026-05-05 10:10 43.44735 16.40020 7609 ft 219 kts 223°
2026-05-05 10:11 43.43939 16.38212 8372 ft 229 kts 252°
2026-05-05 10:11 43.43969 16.35996 9176 ft 242 kts 285°
2026-05-05 10:11 43.44912 16.34031 9989 ft 253 kts 307°
2026-05-05 10:11 43.46163 16.32160 10333 ft 278 kts 308°
2026-05-05 10:12 43.47537 16.30131 10646 ft 302 kts 308°
2026-05-05 10:12 43.49025 16.27932 10927 ft 325 kts 308°
2026-05-05 10:12 43.50600 16.25608 11571 ft 336 kts 310°
2026-05-05 10:12 43.52205 16.23242 12385 ft 340 kts 309°
2026-05-05 10:13 43.53825 16.20848 13239 ft 343 kts 308°
2026-05-05 10:13 43.55458 16.18421 14006 ft 347 kts 308°
2026-05-05 10:13 43.56912 16.15790 14663 ft 344 kts 293°
2026-05-05 10:13 43.57945 16.12815 15317 ft 346 kts 290°
2026-05-05 10:14 43.58955 16.09784 15959 ft 350 kts 291°
2026-05-05 10:14 43.59968 16.06712 16598 ft 354 kts 291°
2026-05-05 10:14 43.60985 16.03612 17279 ft 357 kts 290°
2026-05-05 10:14 43.62011 16.00475 17919 ft 361 kts 290°
2026-05-05 10:15 43.63032 15.97350 18506 ft 364 kts 291°
2026-05-05 10:15 43.64082 15.94146 19059 ft 367 kts 291°
2026-05-05 10:15 43.65138 15.90925 19671 ft 369 kts 291°
2026-05-05 10:15 43.66197 15.87690 20273 ft 371 kts 291°
2026-05-05 10:16 43.67263 15.84435 20894 ft 372 kts 291°
2026-05-05 10:16 43.68331 15.81174 21493 ft 374 kts 291°
2026-05-05 10:16 43.69405 15.77890 22068 ft 376 kts 291°
2026-05-05 10:16 43.70480 15.74595 22643 ft 377 kts 291°
2026-05-05 10:17 43.71557 15.71283 23212 ft 379 kts 291°
2026-05-05 10:17 43.72636 15.67958 23750 ft 380 kts 291°
2026-05-05 10:17 43.73720 15.64611 24204 ft 382 kts 291°
2026-05-05 10:17 43.74810 15.61237 24606 ft 386 kts 292°
2026-05-05 10:18 43.75915 15.57827 24984 ft 390 kts 292°
2026-05-05 10:18 43.77027 15.54396 25382 ft 393 kts 292°
2026-05-05 10:18 43.78145 15.50932 25787 ft 395 kts 292°
2026-05-05 10:18 43.79267 15.47447 26188 ft 398 kts 292°
2026-05-05 10:19 43.80397 15.43936 26585 ft 401 kts 292°
2026-05-05 10:19 43.81534 15.40404 26989 ft 403 kts 292°
2026-05-05 10:19 43.82679 15.36845 27392 ft 406 kts 292°
2026-05-05 10:19 43.83832 15.33264 27788 ft 409 kts 292°
2026-05-05 10:20 43.84991 15.29655 28169 ft 411 kts 292°
2026-05-05 10:20 43.86154 15.26024 28539 ft 414 kts 292°
2026-05-05 10:20 43.87323 15.22365 28919 ft 416 kts 292°
2026-05-05 10:20 43.88499 15.18684 29281 ft 419 kts 292°
2026-05-05 10:21 43.89677 15.14983 29649 ft 421 kts 292°
2026-05-05 10:21 43.90862 15.11252 30023 ft 424 kts 291°
2026-05-05 10:21 43.92049 15.07503 30353 ft 425 kts 291°
2026-05-05 10:21 43.93238 15.03736 30655 ft 427 kts 292°
2026-05-05 10:22 43.94437 14.99949 30959 ft 429 kts 292°
2026-05-05 10:22 43.95639 14.96159 31269 ft 430 kts 292°
2026-05-05 10:22 43.96844 14.92354 31630 ft 431 kts 292°
2026-05-05 10:22 43.98028 14.88605 32099 ft 428 kts 292°
2026-05-05 10:23 43.99219 14.84833 32575 ft 425 kts 291°
2026-05-05 10:23 44.00399 14.81081 33034 ft 423 kts 291°
2026-05-05 10:23 44.01569 14.77342 33473 ft 421 kts 291°
2026-05-05 10:23 44.02729 14.73631 33919 ft 418 kts 291°
2026-05-05 10:24 44.03884 14.69928 34322 ft 416 kts 291°
2026-05-05 10:24 44.05033 14.66243 34680 ft 415 kts 291°
2026-05-05 10:24 44.06181 14.62570 34958 ft 415 kts 291°
2026-05-05 10:24 44.07333 14.58894 35251 ft 414 kts 291°
2026-05-05 10:25 44.08481 14.55224 35549 ft 413 kts 291°
2026-05-05 10:25 44.09622 14.51558 35847 ft 412 kts 291°
2026-05-05 10:25 44.10759 14.47902 36145 ft 411 kts 291°
2026-05-05 10:25 44.11889 14.44258 36434 ft 410 kts 291°
2026-05-05 10:26 44.13015 14.40610 36721 ft 409 kts 291°
2026-05-05 10:26 44.14136 14.36977 36996 ft 408 kts 291°
2026-05-05 10:26 44.15257 14.33351 37266 ft 407 kts 291°
2026-05-05 10:26 44.16374 14.29731 37537 ft 406 kts 291°
2026-05-05 10:27 44.17485 14.26122 37819 ft 405 kts 291°
2026-05-05 10:27 44.18593 14.22520 38014 ft 406 kts 291°
2026-05-05 10:27 44.20812 14.15288 38044 ft 405 kts 291°
2026-05-05 10:28 44.23008 14.08109 38048 ft 405 kts 291°
2026-05-05 10:28 44.25214 14.00872 38044 ft 405 kts 291°
2026-05-05 10:29 44.27419 13.93635 38044 ft 405 kts 291°
2026-05-05 10:29 44.29614 13.86390 38057 ft 406 kts 291°
2026-05-05 10:30 44.31807 13.79132 38055 ft 406 kts 291°
2026-05-05 10:30 44.33997 13.71868 38058 ft 406 kts 291°
2026-05-05 10:31 44.35815 13.65821 38067 ft 406 kts 291°
2026-05-05 10:31 44.38004 13.58534 38073 ft 406 kts 290°
2026-05-05 10:32 44.40186 13.51242 38066 ft 407 kts 290°
2026-05-05 10:32 44.42716 13.42773 38047 ft 406 kts 291°
2026-05-05 10:33 44.44912 13.35495 38047 ft 406 kts 291°
2026-05-05 10:33 44.46758 13.29385 38041 ft 407 kts 291°
2026-05-05 10:34 44.48948 13.22088 38051 ft 407 kts 290°
2026-05-05 10:34 44.51121 13.14834 38048 ft 407 kts 290°
2026-05-05 10:35 44.53309 13.07525 38046 ft 406 kts 290°
2026-05-05 10:35 44.55481 13.00216 38043 ft 406 kts 290°
2026-05-05 10:36 44.57644 12.92902 38041 ft 406 kts 290°
2026-05-05 10:36 44.59808 12.85584 38051 ft 406 kts 290°
2026-05-05 10:37 44.61970 12.78264 38057 ft 406 kts 289°
2026-05-05 10:37 44.64122 12.70936 38047 ft 405 kts 289°
2026-05-05 10:38 44.66267 12.63637 38041 ft 404 kts 289°
2026-05-05 10:38 44.68401 12.56337 38044 ft 404 kts 289°
2026-05-05 10:39 44.70530 12.49023 38049 ft 404 kts 289°
2026-05-05 10:39 44.72653 12.41714 38035 ft 404 kts 289°
2026-05-05 10:40 44.74776 12.34393 38025 ft 404 kts 289°
2026-05-05 10:40 44.76880 12.27111 38023 ft 404 kts 289°
2026-05-05 10:41 44.78992 12.19771 38027 ft 404 kts 288°
2026-05-05 10:41 44.81102 12.12435 38021 ft 404 kts 288°
2026-05-05 10:42 44.84259 12.01415 38019 ft 404 kts 288°
2026-05-05 10:43 44.86350 11.94059 38011 ft 404 kts 288°
2026-05-05 10:43 44.88443 11.86691 38022 ft 404 kts 288°
2026-05-05 10:44 44.90531 11.79335 38015 ft 404 kts 288°
2026-05-05 10:44 44.92615 11.71993 38012 ft 403 kts 288°
2026-05-05 10:45 44.94682 11.64647 38021 ft 402 kts 288°
2026-05-05 10:45 44.96738 11.57299 38017 ft 402 kts 288°
2026-05-05 10:46 44.98790 11.49954 38025 ft 402 kts 288°
2026-05-05 10:46 45.00836 11.42616 38039 ft 401 kts 288°
2026-05-05 10:47 45.02878 11.35278 38026 ft 401 kts 288°
2026-05-05 10:47 45.04924 11.27939 38021 ft 401 kts 288°
2026-05-05 10:48 45.06955 11.20597 38022 ft 401 kts 288°
2026-05-05 10:48 45.08984 11.13247 38019 ft 401 kts 288°
2026-05-05 10:49 45.11009 11.05897 38017 ft 401 kts 288°
2026-05-05 10:49 45.13029 10.98532 38015 ft 401 kts 288°
2026-05-05 10:50 45.15042 10.91167 38014 ft 401 kts 288°
2026-05-05 10:50 45.17033 10.83847 38017 ft 401 kts 288°
2026-05-05 10:51 45.19037 10.76470 38025 ft 401 kts 287°
2026-05-05 10:51 45.21038 10.69080 38040 ft 401 kts 287°
2026-05-05 10:52 45.23036 10.61692 38035 ft 401 kts 287°
2026-05-05 10:52 45.25027 10.54300 38036 ft 401 kts 287°
2026-05-05 10:53 45.27006 10.46908 38041 ft 400 kts 287°
2026-05-05 10:53 45.28980 10.39515 38043 ft 400 kts 287°
2026-05-05 10:54 45.30954 10.32125 38061 ft 400 kts 287°
2026-05-05 10:54 45.32922 10.24723 38017 ft 400 kts 287°
2026-05-05 10:55 45.34884 10.17313 38012 ft 401 kts 287°
2026-05-05 10:55 45.36845 10.09885 38011 ft 401 kts 287°
2026-05-05 10:56 45.38807 10.02448 38000 ft 401 kts 287°
2026-05-05 10:56 45.40761 9.95013 37992 ft 401 kts 287°
2026-05-05 10:57 45.42713 9.87569 37989 ft 401 kts 287°
2026-05-05 10:57 45.44655 9.80124 38059 ft 401 kts 286°
2026-05-05 10:58 45.46589 9.72662 38103 ft 401 kts 286°
2026-05-05 10:58 45.48524 9.65194 38125 ft 402 kts 286°
2026-05-05 10:59 45.50447 9.57714 38141 ft 402 kts 286°
2026-05-05 10:59 45.52369 9.50210 38144 ft 403 kts 286°
2026-05-05 11:00 45.54291 9.42711 38140 ft 403 kts 286°
2026-05-05 11:00 45.56212 9.35207 38009 ft 403 kts 285°
2026-05-05 11:01 45.57908 9.27651 38004 ft 402 kts 281°
2026-05-05 11:01 45.59343 9.19893 37992 ft 402 kts 280°
2026-05-05 11:02 45.60695 9.12205 38010 ft 402 kts 280°
2026-05-05 11:02 45.62067 9.04454 38018 ft 403 kts 280°
2026-05-05 11:03 45.63469 8.96704 38021 ft 404 kts 281°
2026-05-05 11:03 45.64924 8.88937 38017 ft 405 kts 281°
2026-05-05 11:04 45.66376 8.81143 38019 ft 406 kts 281°
2026-05-05 11:04 45.67812 8.73320 38023 ft 407 kts 281°
2026-05-05 11:05 45.69241 8.65486 38026 ft 407 kts 281°
2026-05-05 11:05 45.70669 8.57652 38041 ft 407 kts 280°
2026-05-05 11:06 45.72092 8.49810 38032 ft 408 kts 280°
2026-05-05 11:06 45.73511 8.41951 38021 ft 408 kts 280°
2026-05-05 11:07 45.74918 8.34086 38018 ft 408 kts 280°
2026-05-05 11:07 45.76315 8.26211 38043 ft 408 kts 280°
2026-05-05 11:08 45.77719 8.18324 38010 ft 409 kts 280°
2026-05-05 11:08 45.78423 8.14373 37512 ft 410 kts 280°
2026-05-05 11:08 45.79126 8.10415 36870 ft 410 kts 279°
2026-05-05 11:08 45.79824 8.06463 36254 ft 409 kts 279°
2026-05-05 11:09 45.80519 8.02523 35768 ft 405 kts 279°
2026-05-05 11:09 45.81204 7.98631 35322 ft 400 kts 278°
2026-05-05 11:09 45.81882 7.94788 34894 ft 395 kts 278°
2026-05-05 11:09 45.82547 7.90992 34441 ft 391 kts 278°
2026-05-05 11:10 45.83200 7.87238 34022 ft 386 kts 277°
2026-05-05 11:10 45.83845 7.83517 33487 ft 384 kts 277°
2026-05-05 11:10 45.84486 7.79817 32982 ft 381 kts 277°
2026-05-05 11:10 45.85123 7.76144 32462 ft 378 kts 277°
2026-05-05 11:11 45.85754 7.72497 31963 ft 376 kts 277°
2026-05-05 11:11 45.86380 7.68867 31440 ft 374 kts 277°
2026-05-05 11:11 45.87003 7.65257 30968 ft 372 kts 277°
2026-05-05 11:11 45.87622 7.61663 30516 ft 370 kts 278°
2026-05-05 11:12 45.88235 7.58091 30027 ft 368 kts 278°
2026-05-05 11:12 45.88840 7.54533 29439 ft 366 kts 278°
2026-05-05 11:12 45.89438 7.51001 28911 ft 363 kts 278°
2026-05-05 11:12 45.90029 7.47537 28445 ft 361 kts 278°
2026-05-05 11:13 45.90625 7.44045 27964 ft 359 kts 278°
2026-05-05 11:13 45.91214 7.40574 27444 ft 357 kts 278°
2026-05-05 11:13 45.91800 7.37131 26939 ft 354 kts 278°
2026-05-05 11:13 45.92382 7.33700 26445 ft 352 kts 278°
2026-05-05 11:14 45.92955 7.30293 25961 ft 350 kts 278°
2026-05-05 11:14 45.93525 7.26896 25523 ft 349 kts 278°
2026-05-05 11:14 45.94094 7.23519 25062 ft 347 kts 279°
2026-05-05 11:14 45.94660 7.20152 24623 ft 346 kts 279°
2026-05-05 11:15 45.95222 7.16798 24166 ft 344 kts 279°
2026-05-05 11:15 45.95781 7.13459 23702 ft 343 kts 279°
2026-05-05 11:15 45.96338 7.10129 23231 ft 342 kts 279°
2026-05-05 11:15 45.96894 7.06809 22689 ft 341 kts 279°
2026-05-05 11:16 45.97447 7.03501 22199 ft 339 kts 279°
2026-05-05 11:16 45.97995 7.00216 21761 ft 337 kts 279°
2026-05-05 11:16 45.98539 6.96945 21301 ft 335 kts 279°
2026-05-05 11:16 45.99080 6.93689 20887 ft 334 kts 279°
2026-05-05 11:17 45.99614 6.90454 20463 ft 332 kts 279°
2026-05-05 11:17 46.00142 6.87233 20051 ft 330 kts 279°
2026-05-05 11:17 46.00666 6.84026 19665 ft 329 kts 279°
2026-05-05 11:17 46.01184 6.80832 19296 ft 327 kts 279°
2026-05-05 11:18 46.01704 6.77651 18949 ft 325 kts 279°
2026-05-05 11:18 46.02221 6.74509 18353 ft 321 kts 279°
2026-05-05 11:18 46.02732 6.71397 17694 ft 317 kts 278°
2026-05-05 11:18 46.03233 6.68345 17073 ft 311 kts 278°
2026-05-05 11:19 46.03726 6.65323 16421 ft 309 kts 278°
2026-05-05 11:19 46.04213 6.62328 15853 ft 306 kts 278°
2026-05-05 11:19 46.04693 6.59363 15237 ft 303 kts 279°
2026-05-05 11:19 46.05318 6.56477 14592 ft 303 kts 289°
2026-05-05 11:20 46.06460 6.53920 13996 ft 307 kts 310°
2026-05-05 11:20 46.07560 6.52611 13689 ft 314 kts 325°
2026-05-05 11:20 46.09620 6.51495 13247 ft 322 kts 348°
2026-05-05 11:20 46.12609 6.50917 12690 ft 326 kts 350°
2026-05-05 11:21 46.14108 6.50648 12402 ft 328 kts 350°
2026-05-05 11:21 46.16388 6.50250 11971 ft 332 kts 351°
2026-05-05 11:21 46.18690 6.49855 11532 ft 333 kts 351°
2026-05-05 11:21 46.20965 6.49459 11084 ft 328 kts 351°
2026-05-05 11:22 46.23941 6.48933 10494 ft 321 kts 350°
2026-05-05 11:22 46.25423 6.48670 10202 ft 315 kts 350°
2026-05-05 11:22 46.27572 6.48288 9750 ft 307 kts 350°
2026-05-05 11:22 46.29670 6.47917 9116 ft 302 kts 350°
2026-05-05 11:23 46.31742 6.47547 8465 ft 299 kts 351°
2026-05-05 11:23 46.33792 6.47179 7818 ft 295 kts 351°
2026-05-05 11:23 46.35778 6.46823 7517 ft 278 kts 351°
2026-05-05 11:23 46.37640 6.46489 7269 ft 262 kts 351°
2026-05-05 11:24 46.39415 6.46171 7060 ft 253 kts 351°
2026-05-05 11:24 46.41078 6.45540 6935 ft 245 kts 328°
2026-05-05 11:24 46.42338 6.43945 6609 ft 238 kts 298°
2026-05-05 11:24 46.42895 6.41818 6515 ft 217 kts 270°
2026-05-05 11:25 46.42796 6.39768 6373 ft 200 kts 248°
2026-05-05 11:25 46.42173 6.38038 6172 ft 191 kts 226°
2026-05-05 11:25 46.41260 6.36660 5931 ft 189 kts 223°
2026-05-05 11:25 46.40344 6.35303 5709 ft 187 kts 223°
2026-05-05 11:26 46.39456 6.33987 5462 ft 178 kts 223°
2026-05-05 11:26 46.38608 6.32730 5215 ft 172 kts 224°
2026-05-05 11:26 46.37786 6.31513 4980 ft 166 kts 223°
2026-05-05 11:26 46.36995 6.30341 4768 ft 159 kts 223°
2026-05-05 11:27 46.36229 6.29208 4567 ft 156 kts 223°
2026-05-05 11:27 46.35473 6.28090 4359 ft 156 kts 223°
2026-05-05 11:27 46.34714 6.26969 4148 ft 156 kts 223°
2026-05-05 11:27 46.33956 6.25850 3938 ft 156 kts 223°
2026-05-05 11:28 46.33199 6.24731 3732 ft 156 kts 223°
2026-05-05 11:28 46.32439 6.23609 3526 ft 157 kts 223°
2026-05-05 11:28 46.31676 6.22483 3317 ft 155 kts 223°
2026-05-05 11:28 46.30928 6.21380 3115 ft 153 kts 224°
2026-05-05 11:29 46.30192 6.20295 2907 ft 148 kts 224°
2026-05-05 11:29 46.29473 6.19236 2699 ft 146 kts 225°
2026-05-05 11:29 46.28765 6.18192 2507 ft 144 kts 225°
2026-05-05 11:29 46.28070 6.17170 2289 ft 145 kts 225°
2026-05-05 11:30 46.27350 6.16109 2079 ft 146 kts 225°
2026-05-05 11:30 46.26636 6.15060 1871 ft 146 kts 225°
2026-05-05 11:30 46.25925 6.14020 1678 ft 145 kts 225°
2026-05-05 11:30 46.25229 6.12990 1471 ft 145 kts 226°
2026-05-05 11:31 46.24535 6.11967 1370 ft 129 kts 225°
2026-05-05 11:31 46.24030 6.11224 1376 ft 82 kts 225°
2026-05-05 11:31 46.23771 6.10850 1379 ft 33 kts 221°
2026-05-05 11:31 46.23631 6.10744 1379 ft 15 kts 199°
2026-05-05 11:32 46.23535 6.10704 1386 ft 14 kts 195°
2026-05-05 11:32 46.23452 6.10671 1390 ft 12 kts 195°
2026-05-05 11:32 46.23382 6.10617 1400 ft 12 kts 224°
2026-05-05 11:32 46.23318 6.10523 1400 ft 12 kts 224°
2026-05-05 11:33 46.23259 6.10556 1396 ft 11 kts 135°
2026-05-05 11:33 46.23201 6.10638 1398 ft 9 kts 136°
2026-05-05 11:33 46.23162 6.10663 1396 ft 7 kts 162°
2026-05-05 11:33 46.23138 6.10689 1404 ft 3 kts 135°
2026-05-05 11:34 46.23130 6.10701 1396 ft 0 kts 135°